User: anonymous   Login
Location: Natural Bridges National Monument
(37.6093°N, 109.9767°W)
Time: 07:13:25
(UTC-06:00)
Language:

USA 32 - Orbit

View from above orbital plane
View from above orbital plane
View from above satellite
View from above satellite

Ground track
Ground track

The orbit data is extracted from the following two-line orbital elements,

1 19460U 88078A   15185.99610324 0.00000250  00000-0  90885-4 0    09
2 19460  85.0016 275.9686 0006000 318.6869  41.3130 14.33325482    09
Epoch (UTC): 04 July 2015 23:54:23
Eccentricity: 0.0006000
inclination: 85.0016°
perigee height: 776 km
apogee height: 785 km
right ascension of ascending node: 275.9686°
argument of perigee: 318.6869°
revolutions per day: 14.33325482
mean anomaly at epoch: 41.3130°
orbit number at epoch: 0

The dashed part of the orbit path shows where the satellite is in the earth's shadow,  

DLR